Weather in Petropavlovskaya

Russia / Chechen Republic     43°22′50″N   45°49′42″E
temp.,
°C
wind,
m/s
gust,
m/s
humid.,
%
clouds,
%
prec.,
mm/h
press.,
hPa
HPBL,
m
19 january, tue
tue1900:00−1nw3567100 0.0 1016655
03:00−2nw2471100 0.1 1018473
06:00−2nw477197 0.0 1020721
09:00−2w237098 0.1 1021533
12:00+1sse115480 0.0 1020668
15:00+2sse345090 0.0 1018617
18:00−1ene345849 0.0 1021105
21:00−2ene376524 0.0 1021238
20 january, wed
wed2000:00−3ese23674 0.0 1022131
03:00−3n116749 0.0 102247
06:00−2nne1470100 0.3 1023373
09:00−2ese237297 0.4 1024469
12:00−1ene237899 0.1 1023552
15:00−1ne2287100 0.4 1023301
18:00−2nne1296100 0.8 1025133
21:00−3nne3595100 1.8 1027282
21 january, thu
thu2100:00−4se1295100 0.3 102893
03:00−4sw1190100 0.3 102831
06:00−3w238999 0.0 103080
09:00−4n229098 0.1 1032258
12:00−2nnw2278100 0.1 1032600
15:000wnw246299 0.1 10321053
18:00−4ene117332 0.0 103521
21:00−4sse117616 0.0 103521
22 january, fri
fri2200:00−4sse11780 0.0 103521
03:00−4s12760 0.0 103521
06:00−4sse12680 0.0 103421
09:00−1sse22560 0.0 103471
12:00+2ese23450 0.0 1032259
15:00+3e24500 0.0 1030298
18:00−1e22610 0.0 103121
21:00−2e11610 0.0 103121
23 january, sat
sat2300:00−3n01630 0.0 103021
03:00−4wnw11720 0.0 102921
06:00−4sw11710 0.0 102821
09:00−2wsw11570 0.0 102845
12:00+2n00430 0.0 1026288
15:00+3nnw11420 0.0 1025358
18:00−1wnw23600 0.0 102622
21:00−1w23640 0.0 102525